| time (UTC) | temp F | wind direction | speed knots | gust knots | rain 1hr in | rain 24hr in | rain mn in | humidity % | barometer mb |
| 20260509224004 | 64 | 163 | 0.9 | 2.6 | 0.00 | 0.00 | 0.00 | 74 | 1007.8 |
| 20260509223004 | 64 | 173 | 0.9 | 1.7 | 0.00 | 0.00 | 0.00 | 73 | 1007.9 |
| 20260509221004 | 64 | 209 | 0.9 | 6.1 | 0.00 | 0.00 | 0.00 | 72 | 1008.1 |
| 20260509220004 | 64 | 219 | 0.0 | 2.6 | 0.00 | 0.00 | 0.00 | 70 | 1008.3 |
| 20260509215005 | 64 | 211 | 1.7 | 2.6 | 0.00 | 0.00 | 0.00 | 69 | 1008.4 |
| 20260509214004 | 65 | 234 | 1.7 | 2.6 | 0.00 | 0.00 | 0.00 | 69 | 1008.4 |
| 20260509213004 | 65 | 225 | 1.7 | 6.1 | 0.00 | 0.00 | 0.00 | 68 | 1008.4 |
| 20260509212004 | 65 | 210 | 1.7 | 4.3 | 0.00 | 0.00 | 0.00 | 67 | 1008.7 |
| 20260509211004 | 66 | 276 | 0.9 | 5.2 | 0.00 | 0.00 | 0.00 | 67 | 1008.8 |
| 20260509210004 | 66 | 248 | 1.7 | 6.1 | 0.00 | 0.00 | 0.00 | 66 | 1008.9 |
| 20260509205005 | 66 | 249 | 1.7 | 2.6 | 0.00 | 0.00 | 0.00 | 66 | 1008.8 |
| 20260509204004 | 66 | 271 | 2.6 | 7.0 | 0.00 | 0.00 | 0.00 | 65 | 1008.8 |
| 20260509203004 | 66 | 228 | 1.7 | 4.3 | 0.00 | 0.00 | 0.00 | 63 | 1009.0 |
| 20260509202005 | 68 | 253 | 1.7 | 5.2 | 0.00 | 0.00 | 0.00 | 60 | 1008.8 |
| 20260509201004 | 68 | 263 | 1.7 | 6.1 | 0.00 | 0.00 | 0.00 | 61 | 1008.9 |
| 20260509195004 | 67 | 281 | 1.7 | 12.2 | 0.00 | 0.00 | 0.00 | 65 | 1009.1 |
| 20260509194004 | 67 | 224 | 4.3 | 10.4 | 0.00 | 0.00 | 0.00 | 62 | 1009.3 |
| 20260509193004 | 67 | 208 | 2.6 | 7.0 | 0.00 | 0.00 | 0.00 | 63 | 1009.5 |
| 20260509192004 | 67 | 217 | 1.7 | 7.0 | 0.00 | 0.00 | 0.00 | 63 | 1009.6 |
| 20260509191004 | 67 | 241 | 3.5 | 7.8 | 0.00 | 0.00 | 0.00 | 62 | 1009.7 |
| 20260509190005 | 68 | 167 | 1.7 | 8.7 | 0.00 | 0.00 | 0.00 | 61 | 1009.8 |
| 20260509185004 | 69 | 219 | 1.7 | 8.7 | 0.00 | 0.00 | 0.00 | 60 | 1009.7 |
| 20260509183003 | 69 | 159 | 2.6 | 8.7 | 0.00 | 0.00 | 0.00 | 61 | 1009.9 |
| 20260509182003 | 68 | 234 | 2.6 | 8.7 | 0.00 | 0.00 | 0.00 | 58 | 1010.0 |
| 20260509181003 | 68 | 255 | 1.7 | 7.0 | 0.00 | 0.00 | 0.00 | 63 | 1009.9 |
| 20260509180003 | 67 | 231 | 2.6 | 7.0 | 0.00 | 0.00 | 0.00 | 63 | 1010.2 |
| 20260509175004 | 66 | 207 | 1.7 | 7.8 | 0.00 | 0.00 | 0.00 | 62 | 1010.4 |
| 20260509173003 | 65 | 227 | 0.9 | 10.4 | 0.00 | 0.00 | 0.00 | 69 | 1010.8 |
| 20260509171003 | 65 | 222 | 2.6 | 7.0 | 0.00 | 0.00 | 0.00 | 64 | 1010.9 |
| 20260509170004 | 64 | 224 | 1.7 | 7.0 | 0.00 | 0.00 | 0.00 | 65 | 1010.9 |
| 20260509165003 | 66 | 233 | 1.7 | 6.1 | 0.00 | 0.00 | 0.00 | 66 | 1011.0 |
| 20260509164003 | 67 | 197 | 1.7 | 10.4 | 0.00 | 0.00 | 0.00 | 66 | 1011.2 |
| 20260509163004 | 66 | 205 | 0.9 | 7.0 | 0.00 | 0.00 | 0.00 | 66 | 1011.3 |
| 20260509162003 | 64 | 170 | 2.6 | 7.0 | 0.00 | 0.00 | 0.00 | 65 | 1011.5 |
| 20260509160004 | 64 | 213 | 1.7 | 8.7 | 0.00 | 0.00 | 0.00 | 69 | 1011.3 |
| 20260509155003 | 65 | 225 | 1.7 | 7.0 | 0.00 | 0.00 | 0.00 | 66 | 1011.5 |
| 20260509154003 | 64 | 153 | 2.6 | 7.8 | 0.00 | 0.00 | 0.00 | 69 | 1011.7 |
| 20260509153004 | 63 | 166 | 2.6 | 7.0 | 0.00 | 0.00 | 0.00 | 72 | 1011.9 |
| 20260509152003 | 62 | 230 | 2.6 | 7.8 | 0.00 | 0.00 | 0.00 | 71 | 1012.1 |
| 20260509151003 | 62 | 304 | 1.7 | 6.1 | 0.00 | 0.00 | 0.00 | 70 | 1012.2 |
| 20260509150005 | 61 | 211 | 1.7 | 4.3 | 0.00 | 0.00 | 0.00 | 75 | 1012.1 |
| 20260509145003 | 60 | 224 | 1.7 | 2.6 | 0.00 | 0.00 | 0.00 | 78 | 1012.2 |
| 20260509144003 | 60 | 261 | 2.6 | 2.6 | 0.00 | 0.00 | 0.00 | 76 | 1012.2 |
| 20260509143004 | 60 | 269 | 1.7 | 7.0 | 0.00 | 0.00 | 0.00 | 78 | 1012.3 |
| 20260509142004 | 60 | 223 | 2.6 | 4.3 | 0.00 | 0.00 | 0.00 | 78 | 1012.4 |
| 20260509141003 | 60 | 262 | 1.7 | 2.6 | 0.00 | 0.00 | 0.00 | 79 | 1012.4 |
| 20260509140004 | 59 | 197 | 1.7 | 7.0 | 0.00 | 0.00 | 0.00 | 81 | 1012.6 |
| 20260509135004 | 58 | 187 | 2.6 | 6.1 | 0.00 | 0.00 | 0.00 | 82 | 1012.7 |
| 20260509132005 | 56 | 162 | 2.6 | 4.3 | 0.00 | 0.00 | 0.00 | 84 | 1013.0 |
| 20260509131005 | 56 | 163 | 1.7 | 4.3 | 0.00 | 0.00 | 0.00 | 86 | 1013.0 |
| 20260509130005 | 55 | 157 | 1.7 | 2.6 | 0.00 | 0.00 | 0.00 | 86 | 1013.2 |
| 20260509124005 | 53 | 195 | 0.9 | 2.6 | 0.00 | 0.00 | 0.00 | 89 | 1013.2 |
| 20260509122004 | 50 | 140 | 0.0 | 2.6 | 0.00 | 0.00 | 0.00 | 94 | 1013.4 |
| 20260509121005 | 49 | 154 | 0.0 | 0.9 | 0.00 | 0.00 | 0.00 | 95 | 1013.4 |
| 20260509120004 | 47 | 125 | 0.0 | 0.0 | 0.00 | 0.01 | 0.00 | 94 | 1013.3 |
| 20260509113005 | 44 | 125 | 0.0 | 0.0 | 0.00 | 0.02 | 0.00 | 95 | 1013.2 |
| 20260509111006 | 42 | 125 | 0.0 | 0.0 | 0.00 | 0.03 | 0.00 | 96 | 1013.3 |
| 20260509105005 | 41 | 125 | 0.0 | 0.0 | 0.00 | 0.03 | 0.00 | 95 | 1013.5 |
| 20260509104006 | 41 | 125 | 0.0 | 0.0 | 0.00 | 0.03 | 0.00 | 94 | 1013.6 |
| 20260509102005 | 41 | 125 | 0.0 | 0.0 | 0.00 | 0.03 | 0.00 | 94 | 1013.5 |
| 20260509101005 | 40 | 125 | 0.0 | 0.0 | 0.00 | 0.03 | 0.00 | 94 | 1013.3 |
| 20260509100005 | 40 | 125 | 0.0 | 0.0 | 0.00 | 0.03 | 0.00 | 94 | 1013.2 |
| 20260509095005 | 40 | 125 | 0.0 | 0.0 | 0.00 | 0.03 | 0.00 | 94 | 1013.1 |
| 20260509094005 | 39 | 125 | 0.0 | 0.0 | 0.00 | 0.03 | 0.00 | 93 | 1013.2 |
| 20260509093005 | 39 | 125 | 0.0 | 0.0 | 0.00 | 0.03 | 0.00 | 92 | 1013.1 |
| 20260509092006 | 39 | 125 | 0.0 | 0.0 | 0.00 | 0.03 | 0.00 | 92 | 1013.3 |
| 20260509091006 | 39 | 125 | 0.0 | 0.0 | 0.00 | 0.03 | 0.00 | 92 | 1013.4 |
| 20260509085007 | 39 | 125 | 0.0 | 0.0 | 0.00 | 0.04 | 0.00 | 92 | 1013.4 |
| 20260509083005 | 40 | 125 | 0.0 | 0.0 | 0.00 | 0.04 | 0.00 | 92 | 1013.5 |
| 20260509082005 | 40 | 125 | 0.0 | 0.0 | 0.00 | 0.04 | 0.00 | 91 | 1013.5 |
| 20260509081007 | 40 | 125 | 0.0 | 0.0 | 0.00 | 0.04 | 0.00 | 91 | 1013.5 |
| 20260509080005 | 40 | 125 | 0.0 | 0.0 | 0.00 | 0.04 | 0.00 | 90 | 1013.6 |
| 20260509075005 | 40 | 125 | 0.0 | 0.0 | 0.00 | 0.04 | 0.00 | 90 | 1013.7 |
| 20260509074006 | 40 | 125 | 0.0 | 0.0 | 0.00 | 0.04 | 0.00 | 89 | 1013.8 |
| 20260509073005 | 40 | 125 | 0.0 | 0.0 | 0.00 | 0.04 | 0.00 | 89 | 1013.9 |
| 20260509072005 | 40 | 125 | 0.0 | 0.0 | 0.00 | 0.04 | 0.00 | 89 | 1014.0 |
| 20260509071006 | 40 | 125 | 0.0 | 0.0 | 0.00 | 0.04 | 0.00 | 89 | 1014.2 |
| 20260509070006 | 40 | 125 | 0.0 | 0.0 | 0.00 | 0.04 | 0.00 | 88 | 1014.1 |
| 20260509064008 | 41 | 125 | 0.0 | 0.9 | 0.00 | 0.04 | 0.00 | 89 | 1014.3 |
| 20260509063006 | 41 | 125 | 0.9 | 2.6 | 0.00 | 0.04 | 0.00 | 89 | 1014.6 |
| 20260509062006 | 41 | 262 | 0.0 | 1.7 | 0.00 | 0.04 | 0.00 | 90 | 1014.7 |
| 20260509061006 | 41 | 167 | 0.0 | 0.0 | 0.00 | 0.04 | 0.00 | 90 | 1014.8 |
| 20260509060006 | 40 | 167 | 0.0 | 0.0 | 0.00 | 0.04 | 0.00 | 90 | 1014.9 |
| 20260509055006 | 40 | 167 | 0.0 | 0.0 | 0.00 | 0.04 | 0.00 | 89 | 1014.9 |
| 20260509054007 | 40 | 167 | 0.0 | 0.0 | 0.00 | 0.04 | 0.00 | 88 | 1015.0 |
| 20260509053006 | 40 | 167 | 0.0 | 0.0 | 0.00 | 0.04 | 0.00 | 87 | 1015.1 |
| 20260509052007 | 40 | 167 | 0.0 | 0.0 | 0.00 | 0.04 | 0.00 | 88 | 1015.2 |
| 20260509051006 | 40 | 167 | 0.0 | 0.0 | 0.00 | 0.04 | 0.00 | 87 | 1015.4 |
| 20260509050007 | 40 | 167 | 0.0 | 0.0 | 0.00 | 0.04 | 0.00 | 87 | 1015.4 |
| 20260509045006 | 40 | 167 | 0.0 | 0.0 | 0.00 | 0.04 | 0.00 | 87 | 1015.6 |
| 20260509044015 | 40 | 167 | 0.0 | 0.0 | 0.00 | 0.04 | 0.00 | 88 | 1015.5 |
| 20260509043007 | 40 | 167 | 0.0 | 0.0 | 0.00 | 0.04 | 0.00 | 87 | 1015.6 |
| 20260509042007 | 41 | 167 | 0.0 | 0.0 | 0.00 | 0.04 | 0.00 | 87 | 1015.6 |
| 20260509041007 | 41 | 167 | 0.0 | 0.0 | 0.00 | 0.04 | 0.00 | 86 | 1015.8 |
| 20260509040007 | 41 | 167 | 0.0 | 0.0 | 0.00 | 0.04 | 0.00 | 86 | 1015.8 |
| 20260509035010 | 41 | 167 | 0.0 | 0.0 | 0.00 | 0.04 | 0.04 | 86 | 1016.0 |
| 20260509034010 | 42 | 167 | 0.0 | 0.0 | 0.00 | 0.04 | 0.04 | 86 | 1016.1 |
| 20260509032002 | 42 | 167 | 0.0 | 0.0 | 0.00 | 0.04 | 0.04 | 85 | 1016.1 |
| 20260509031003 | 43 | 167 | 0.0 | 0.0 | 0.00 | 0.04 | 0.04 | 84 | 1016.2 |
| 20260509030003 | 43 | 167 | 0.0 | 0.0 | 0.00 | 0.04 | 0.04 | 84 | 1016.2 |
| 20260509024004 | 44 | 167 | 0.0 | 0.0 | 0.00 | 0.04 | 0.04 | 81 | 1016.3 |
| 20260509022003 | 44 | 167 | 0.0 | 0.0 | 0.00 | 0.05 | 0.04 | 78 | 1016.1 |
| 20260509021004 | 45 | 167 | 0.0 | 0.0 | 0.00 | 0.05 | 0.04 | 77 | 1016.0 |
| 20260509020003 | 45 | 167 | 0.0 | 0.0 | 0.00 | 0.06 | 0.04 | 76 | 1016.0 |
| 20260509015003 | 46 | 167 | 0.0 | 0.0 | 0.00 | 0.06 | 0.04 | 75 | 1016.0 |
| 20260509014004 | 47 | 167 | 0.0 | 0.0 | 0.00 | 0.06 | 0.04 | 73 | 1016.0 |
| 20260509013003 | 47 | 167 | 0.0 | 0.0 | 0.00 | 0.06 | 0.04 | 72 | 1016.1 |
| 20260509011003 | 49 | 167 | 0.0 | 0.0 | 0.00 | 0.06 | 0.04 | 68 | 1016.0 |
| 20260509010004 | 50 | 167 | 0.0 | 0.0 | 0.00 | 0.06 | 0.04 | 68 | 1015.9 |
| 20260509005003 | 51 | 167 | 0.0 | 0.0 | 0.00 | 0.06 | 0.04 | 69 | 1015.8 |
| 20260509004004 | 51 | 167 | 0.0 | 0.0 | 0.00 | 0.06 | 0.04 | 66 | 1015.7 |
| 20260509003003 | 52 | 167 | 0.0 | 0.0 | 0.00 | 0.07 | 0.04 | 66 | 1015.6 |
| 20260509001004 | 54 | 167 | 0.0 | 1.7 | 0.00 | 0.07 | 0.04 | 62 | 1015.5 |
| 20260509000002 | 55 | 158 | 0.0 | 4.3 | 0.00 | 0.07 | 0.04 | 59 | 1015.5 |
| 20260508233002 | 56 | 243 | 0.9 | 2.6 | 0.00 | 0.07 | 0.04 | 51 | 1015.5 |
| 20260508232002 | 56 | 248 | 1.7 | 5.2 | 0.00 | 0.07 | 0.04 | 52 | 1015.3 |
| 20260508231003 | 56 | 221 | 0.9 | 2.6 | 0.00 | 0.07 | 0.04 | 49 | 1015.3 |
| 20260508230003 | 57 | 248 | 0.9 | 2.6 | 0.00 | 0.07 | 0.04 | 51 | 1015.3 |